EN

Hourly Weather Momynay

Today, 16 January, Saturday

Time Temperature Precipitation Wind Pressure Humidity
00:00 +7°C° 0 mm 3 mps 686 mmHg 35%
01:00 +8°C° 0 mm 3 mps 686 mmHg 34%
02:00 +8°C° 0 mm 3 mps 686 mmHg 33%
03:00 +8°C° 0 mm 3 mps 686 mmHg 33%
04:00 +8°C° 0 mm 3 mps 686 mmHg 32%
05:00 +7°C° 0 mm 3 mps 686 mmHg 33%
06:00 +7°C° 0 mm 3 mps 686 mmHg 32%
07:00 +8°C° 0 mm 3 mps 686 mmHg 32%
08:00 +8°C° 0 mm 3 mps 686 mmHg 32%
09:00 +9°C° 0 mm 3 mps 686 mmHg 36%
10:00 +9°C° 0 mm 3 mps 686 mmHg 41%
11:00 +10°C° 0 mm 3 mps 686 mmHg 48%
12:00 +11°C° 0 mm 3 mps 686 mmHg 49%
13:00 +12°C° 0 mm 2 mps 686 mmHg 51%
14:00 +13°C° 0 mm 2 mps 687 mmHg 52%
15:00 +12°C° 0 mm 2 mps 687 mmHg 48%
16:00 +9°C° 0 mm 2 mps 686 mmHg 45%
17:00 +8°C° 0 mm 2 mps 686 mmHg 41%
18:00 +8°C° 0 mm 2 mps 687 mmHg 40%
19:00 +7°C° 0 mm 2 mps 687 mmHg 39%
20:00 +7°C° 0 mm 2 mps 687 mmHg 38%
21:00 +6°C° 0 mm 2 mps 687 mmHg 38%
22:00 +6°C° 0 mm 2 mps 687 mmHg 37%
23:00 +6°C° 0 mm 2 mps 688 mmHg 36%

Tomorrow, 17 January, Sunday

Time Temperature Precipitation Wind Pressure Humidity
00:00 +5°C° 0 mm 2 mps 688 mmHg 36%
01:00 +5°C° 0 mm 2 mps 688 mmHg 36%
02:00 +5°C° 0 mm 2 mps 688 mmHg 36%
03:00 +5°C° 0 mm 2 mps 688 mmHg 35%
04:00 +5°C° 0 mm 2 mps 688 mmHg 35%
05:00 +6°C° 0 mm 1 mps 688 mmHg 34%
06:00 +4°C° 0 mm 2 mps 688 mmHg 34%
07:00 +4°C° 0 mm 2 mps 688 mmHg 34%
08:00 +4°C° 0 mm 2 mps 688 mmHg 34%
09:00 +6°C° 0 mm 1 mps 688 mmHg 38%
10:00 +8°C° 0 mm 1 mps 688 mmHg 43%
11:00 +9°C° 0 mm 1 mps 688 mmHg 47%
12:00 +10°C° 0 mm 1 mps 687 mmHg 49%
13:00 +10°C° 0 mm 1 mps 686 mmHg 51%
14:00 +10°C° 0 mm 1 mps 686 mmHg 53%
15:00 +9°C° 0 mm 1 mps 685 mmHg 51%
16:00 +8°C° 0 mm 1 mps 685 mmHg 49%
17:00 +7°C° 0 mm 1 mps 684 mmHg 47%
18:00 +7°C° 0 mm 1 mps 684 mmHg 45%
19:00 +5°C° 0 mm 2 mps 684 mmHg 43%
20:00 +5°C° 0 mm 2 mps 683 mmHg 41%
21:00 +5°C° 0 mm 2 mps 683 mmHg 39%
22:00 +5°C° 0 mm 2 mps 683 mmHg 36%
23:00 +5°C° 0 mm 2 mps 683 mmHg 34%

Day after tomorrow, 18 January, Monday

Time Temperature Precipitation Wind Pressure Humidity
00:00 +5°C° 0 mm 2 mps 683 mmHg 33%
01:00 +5°C° 0 mm 2 mps 683 mmHg 32%
02:00 +5°C° 0 mm 2 mps 682 mmHg 31%
03:00 +5°C° 0 mm 2 mps 682 mmHg 31%
04:00 +5°C° 0 mm 2 mps 682 mmHg 31%
05:00 +5°C° 0 mm 2 mps 682 mmHg 30%
06:00 +5°C° 0 mm 2 mps 682 mmHg 31%
07:00 +5°C° 0 mm 2 mps 682 mmHg 31%
08:00 +5°C° 0 mm 2 mps 682 mmHg 31%
09:00 +6°C° 0 mm 2 mps 682 mmHg 35%
10:00 +7°C° 0 mm 2 mps 683 mmHg 39%
11:00 +8°C° 0 mm 2 mps 683 mmHg 42%
12:00 +9°C° 0 mm 2 mps 683 mmHg 44%
13:00 +9°C° 0 mm 2 mps 683 mmHg 45%
14:00 +11°C° 0 mm 1 mps 683 mmHg 46%
15:00 +9°C° 0 mm 2 mps 683 mmHg 44%
16:00 +9°C° 0 mm 2 mps 683 mmHg 43%
17:00 +8°C° 0 mm 2 mps 683 mmHg 41%
18:00 +8°C° 0 mm 2 mps 683 mmHg 45%
19:00 +7°C° 0 mm 3 mps 683 mmHg 50%
20:00 +5°C° 0 mm 3 mps 683 mmHg 54%
21:00 +5°C° 0 mm 3 mps 683 mmHg 53%
22:00 +5°C° 0 mm 3 mps 683 mmHg 52%
23:00 +5°C° 0 mm 3 mps 683 mmHg 51%

19 January, Tuesday

Time Temperature Precipitation Wind Pressure Humidity
00:00 +5°C° 0.1 mm 4 mps 683 mmHg 56%
01:00 +5°C° 0.1 mm 4 mps 683 mmHg 61%
02:00 +5°C° 0.1 mm 4 mps 683 mmHg 67%
03:00 +5°C° 0 mm 4 mps 683 mmHg 66%
04:00 +5°C° 0 mm 4 mps 683 mmHg 66%
05:00 +5°C° 0 mm 3 mps 684 mmHg 65%
06:00 +5°C° 0 mm 3 mps 684 mmHg 65%
07:00 +4°C° 0 mm 3 mps 685 mmHg 65%
08:00 +4°C° 0 mm 3 mps 685 mmHg 64%
09:00 +5°C° 0 mm 3 mps 686 mmHg 63%
10:00 +6°C° 0 mm 4 mps 686 mmHg 61%
11:00 +7°C° 0 mm 4 mps 687 mmHg 59%
12:00 +8°C° 0 mm 4 mps 687 mmHg 58%
13:00 +10°C° 0 mm 4 mps 687 mmHg 56%
14:00 +9°C° 0 mm 5 mps 687 mmHg 54%
15:00 +8°C° 0 mm 5 mps 687 mmHg 57%
16:00 +7°C° 0 mm 5 mps 687 mmHg 60%
17:00 +6°C° 0 mm 4 mps 687 mmHg 63%
18:00 +6°C° 0.1 mm 4 mps 688 mmHg 66%
19:00 +6°C° 0.1 mm 4 mps 688 mmHg 69%
20:00 +5°C° 0.1 mm 4 mps 688 mmHg 72%
21:00 +5°C° 0.7 mm 4 mps 688 mmHg 77%
22:00 +5°C° 0.7 mm 5 mps 689 mmHg 82%
23:00 +3°C° 0.7 mm 5 mps 689 mmHg 88%

20 January, Wednesday

Time Temperature Precipitation Wind Pressure Humidity
00:00 +4°C° 0 mm 4 mps 689 mmHg 80%
01:00 +4°C° 0 mm 4 mps 689 mmHg 73%
02:00 +4°C° 0 mm 3 mps 689 mmHg 66%
03:00 +4°C° 0 mm 3 mps 689 mmHg 65%
04:00 +4°C° 0 mm 3 mps 689 mmHg 64%
05:00 +3°C° 0 mm 3 mps 689 mmHg 63%
06:00 +3°C° 0 mm 3 mps 689 mmHg 62%
07:00 +3°C° 0 mm 3 mps 689 mmHg 61%
08:00 +2°C° 0 mm 3 mps 689 mmHg 60%
09:00 +4°C° 0 mm 3 mps 689 mmHg 58%
10:00 +5°C° 0 mm 3 mps 689 mmHg 56%
11:00 +7°C° 0 mm 3 mps 689 mmHg 55%
12:00 +8°C° 0 mm 2 mps 688 mmHg 53%
13:00 +9°C° 0 mm 2 mps 687 mmHg 52%
14:00 +9°C° 0 mm 2 mps 687 mmHg 51%
15:00 +8°C° 0 mm 2 mps 686 mmHg 49%
16:00 +8°C° 0 mm 2 mps 686 mmHg 47%
17:00 +7°C° 0 mm 2 mps 685 mmHg 46%
18:00 +5°C° 0 mm 3 mps 685 mmHg 43%
19:00 +5°C° 0 mm 3 mps 685 mmHg 40%
20:00 +4°C° 0 mm 3 mps 685 mmHg 37%
21:00 +5°C° 0 mm 4 mps 685 mmHg 36%
22:00 +5°C° 0 mm 4 mps 685 mmHg 35%
23:00 +5°C° 0 mm 4 mps 685 mmHg 35%

21 January, Thursday

Time Temperature Precipitation Wind Pressure Humidity
00:00 +5°C° 0 mm 4 mps 685 mmHg 35%
01:00 +5°C° 0 mm 4 mps 685 mmHg 34%
02:00 +5°C° 0 mm 4 mps 684 mmHg 34%
03:00 +4°C° 0 mm 4 mps 685 mmHg 36%
04:00 +4°C° 0 mm 4 mps 685 mmHg 39%
05:00 +3°C° 0 mm 4 mps 685 mmHg 41%
06:00 +3°C° 0 mm 3 mps 685 mmHg 45%
07:00 +3°C° 0 mm 3 mps 685 mmHg 49%
08:00 +4°C° 0 mm 2 mps 685 mmHg 53%
09:00 +4°C° 0 mm 2 mps 685 mmHg 57%
10:00 +5°C° 0 mm 2 mps 686 mmHg 62%
11:00 +5°C° 0 mm 2 mps 686 mmHg 67%
12:00 +6°C° 0 mm 1 mps 686 mmHg 69%
13:00 +6°C° 0 mm 1 mps 685 mmHg 71%
14:00 +6°C° 0 mm 1 mps 685 mmHg 73%
15:00 +6°C° 0 mm 1 mps 685 mmHg 76%
16:00 +5°C° 0 mm 1 mps 685 mmHg 79%
17:00 +4°C° 0 mm 1 mps 685 mmHg 82%
18:00 +4°C° 0.1 mm 1 mps 685 mmHg 84%
19:00 +4°C° 0.1 mm 1 mps 685 mmHg 87%
20:00 +3°C° 0.1 mm 1 mps 686 mmHg 90%
21:00 +3°C° 0.9 mm 1 mps 686 mmHg 93%
22:00 +3°C° 0.9 mm 1 mps 686 mmHg 95%
23:00 +2°C° 0.9 mm 1 mps 686 mmHg 97%
Show more

We Need Your Consent

Meteoprog and our Service Providers may store and access personal data such as cookies, device identifiers or other similar technologies on your device and process such data to personalise content and ads, as well as provide social media features and to analyse the traffic.

  • Store and/or access information on your device

    Cookies, device identifiers or other information can be stored or accessed on your device for the purposes indicated above.

  • Personalised ads and content, ad and content measurement, audience insights, and products development

    Ads and content can be personalised based on a profile. More data can be added to better personalise ads and content. Ad and content performance can be measured. Insights about the audience who saw the ads and content can be derived. Such data can be used to develop or improve user’s experience, systems and software.

By clicking ‘I Agree’ you will allow the use of indicated cookies, device identifiers, web beacons or other similar technologies. Your settings can be changed in the browser on your device.

For certain purposes, legitimate interests may be relied on, rather than consent. You can read more about this in our Privacy and Cookie Policy.